Theta_e
323 323 324 324 325 326 326 326 326 327 327 326 326 327 327 328 325 315 310 316 319 328 325 316 314 314 316 313 314 313 303 302 302 301 303 305 303 305 305 306 305 306 307 305 308
321 321 322 323 324 325 325 325 325 326 326 326 325 326 326 326 318 312 321 325 326 328 315 313 311 313 312 311 311 308 304 303 306 306 304 305 304 306 302 303 304 305 307 303 305
319 319 320 321 322 324 324 325 325 325 326 326 325 326 325 324 312 312 326 327 326 324 315 313 313 312 309 310 309 308 303 306 306 306 305 304 304 306 303 302 306 306 307 304 303
317 317 318 319 320 322 323 324 325 325 325 325 325 326 325 319 302 313 326 325 326 318 313 311 311 308 308 306 308 303 307 306 306 305 304 303 306 303 304 306 307 309 310 306 302
316 316 316 317 318 320 321 322 323 324 325 325 325 326 320 310 309 315 320 320 315 312 310 310 309 310 306 307 306 304 306 305 306 305 304 305 302 303 305 309 310 308 304 306 303
317 316 316 316 317 318 319 321 322 323 324 324 324 324 314 303 314 314 311 311 311 311 309 309 309 310 307 305 305 305 304 305 306 305 304 301 303 302 306 308 308 308 305 304 304
318 317 316 316 316 317 318 319 321 322 322 323 325 320 310 307 314 313 311 310 309 310 308 309 310 308 308 305 306 303 300 304 305 304 302 302 299 300 306 306 304 305 305 305 305
317 316 316 316 316 316 317 319 321 321 321 323 324 316 306 313 316 310 311 308 309 309 309 308 309 308 306 305 303 300 301 297 304 303 302 301 295 303 307 305 303 305 306 305 305
316 315 316 316 316 317 318 319 320 320 321 321 318 313 304 312 310 311 311 307 308 308 307 307 309 306 304 301 299 301 296 298 301 303 301 299 297 303 306 304 303 304 305 306 305
316 315 316 316 316 316 317 320 320 318 320 316 311 307 307 305 310 309 308 309 306 306 305 305 305 301 302 300 293 296 296 298 298 301 299 298 297 301 304 303 303 304 305 305 306
315 314 315 316 316 317 317 313 308 307 308 306 306 307 303 309 310 307 306 305 306 304 300 303 299 296 300 302 301 299 297 296 299 302 298 297 297 300 303 303 303 303 304 304 305
316 315 316 316 317 317 314 305 308 307 298 305 305 304 306 309 303 305 306 302 301 298 302 298 294 301 302 300 299 298 295 295 300 302 295 296 296 300 301 302 302 302 303 304 305
316 316 316 316 317 314 309 307 312 310 300 301 305 303 303 304 301 303 303 303 300 298 299 296 299 299 298 298 295 296 294 296 296 300 297 295 293 297 300 301 301 301 302 303 303
317 316 316 316 312 313 308 308 312 309 294 297 297 301 303 302 297 299 302 301 299 296 298 298 300 298 296 295 297 293 299 298 296 294 290 295 286 295 298 299 299 299 302 304 302
316 316 316 314 312 308 307 310 311 304 285 297 295 303 302 298 297 296 299 297 295 296 297 296 296 294 294 296 299 295 295 295 295 293 293 292 289 293 294 294 296 299 302 305 303
316 316 315 313 313 312 310 311 307 292 285 293 297 296 296 297 295 295 296 298 297 295 296 295 296 296 297 293 295 294 293 292 291 291 285 291 291 291 294 295 297 300 302 304 302
316 316 314 315 309 311 309 306 292 286 294 294 294 295 295 295 295 293 292 291 292 289 291 295 294 296 295 293 293 293 292 287 287 286 285 294 290 293 298 298 299 299 301 303 301
316 315 313 315 314 311 306 298 286 293 295 296 294 295 293 296 295 294 293 292 294 294 291 291 289 293 294 295 296 291 293 289 284 284 287 288 286 292 300 301 301 301 301 301 300
316 314 311 313 311 310 299 288 293 297 298 297 294 291 292 294 294 294 293 294 297 294 290 290 290 291 294 294 297 292 287 295 290 289 285 289 293 299 301 298 298 298 298 299 298
314 311 310 313 307 304 292 291 299 301 299 296 292 294 291 293 291 292 293 297 295 297 298 295 288 294 288 290 291 291 293 288 289 283 281 286 289 290 295 296 297 297 298 300 300
312 302 310 308 308 297 286 289 299 303 300 293 292 292 294 293 295 293 293 297 298 297 297 295 292 290 288 287 290 287 287 288 288 289 284 282 287 295 296 297 297 299 300 301 301
308 298 307 308 294 292 288 294 298 300 300 294 295 293 293 294 293 292 292 296 299 297 291 294 291 287 290 295 293 293 291 291 285 284 287 286 287 297 297 298 298 298 300 302 303
303 301 306 306 291 289 293 295 298 298 298 294 292 293 294 291 287 292 294 298 299 296 294 293 288 284 286 288 287 287 290 291 292 289 285 283 286 297 298 298 299 297 299 300 299
303 294 296 298 299 295 291 293 293 300 297 297 292 294 292 289 292 289 291 296 296 296 295 296 290 287 284 288 291 288 288 289 289 284 285 286 288 293 295 296 298 299 300 300 300
301 297 295 288 290 293 294 293 292 292 298 298 293 292 291 288 290 289 292 293 294 293 293 292 285 288 290 292 292 290 290 289 286 287 284 287 288 292 295 296 298 299 299 298 298
294 297 295 295 298 291 291 291 291 294 295 294 292 295 294 290 292 291 293 292 291 292 290 292 284 286 284 288 288 286 288 290 289 289 289 289 287 295 296 297 296 297 297 296 297
299 296 290 290 291 290 291 292 292 296 297 299 298 296 293 294 296 297 298 298 296 292 288 287 285 284 280 287 285 281 286 288 289 291 291 286 291 296 296 296 297 297 298 297 297
Wind_Speed
16 17 18 18 18 18 18 18 17 15 13 12 12 9 8 9 4 6 8 3 4 5 2 2 5 5 5 4 3 2 6 7 6 5 2 4 8 5 4 7 4 9 8 5 13
16 17 17 18 18 17 17 17 17 16 14 12 12 10 8 7 8 12 6 8 7 7 5 8 6 7 5 3 3 6 6 7 2 4 5 4 9 8 5 12 14 13 11 5 16
15 16 16 17 18 18 17 17 16 16 16 14 13 10 7 6 7 4 9 7 7 8 4 3 4 8 8 4 6 4 7 5 6 6 5 8 9 9 9 15 15 16 15 16 16
14 15 16 17 17 18 19 18 17 17 17 15 13 10 8 5 6 3 6 3 4 5 5 4 6 5 6 7 4 6 11 8 2 3 4 9 6 7 17 19 2 4 8 17 19
10 13 16 17 18 18 18 19 18 17 17 16 13 9 4 7 8 7 6 5 6 4 6 7 8 6 8 3 4 9 10 6 9 6 10 8 14 13 18 17 16 10 6 14 18
8 9 13 16 18 20 20 19 19 17 16 17 11 4 6 11 4 5 6 6 2 6 3 4 4 3 7 6 8 5 8 12 9 12 10 10 15 4 12 10 17 18 17 17 19
8 9 11 14 17 20 22 22 20 19 18 15 7 5 7 11 3 5 5 3 1 2 4 1 1 5 1 6 2 5 10 14 16 12 8 7 10 19 20 11 12 14 16 18 20
9 8 10 12 15 19 21 22 22 19 15 8 4 5 8 2 4 4 7 4 4 3 1 1 2 1 4 2 5 6 7 12 2 11 6 8 18 12 10 10 16 18 18 18 20
10 10 10 12 14 16 19 24 22 12 4 3 5 6 7 4 4 5 4 4 5 4 4 2 3 4 3 7 12 11 12 15 15 15 4 13 15 11 4 10 19 19 20 19 20
11 11 11 12 15 16 20 22 5 4 4 4 3 5 6 3 5 4 2 7 2 5 4 5 6 8 9 10 13 17 16 15 15 10 13 16 22 21 22 21 23 24 24 21 20
13 14 14 13 16 17 13 4 6 5 6 6 2 5 2 4 3 5 4 7 4 6 8 6 9 17 18 19 22 22 20 23 23 9 9 20 24 23 22 22 24 23 23 21 19
8 12 13 13 14 16 8 3 3 3 10 9 12 9 5 3 4 9 8 11 9 15 14 6 17 22 16 9 15 18 20 25 22 9 5 16 23 22 22 26 25 23 22 17 13
10 9 11 12 13 9 6 1 1 1 8 7 8 7 4 10 9 9 16 7 12 16 19 22 22 4 4 13 14 18 21 22 21 14 13 16 22 18 13 16 18 21 17 15 13
11 10 7 12 8 7 3 2 1 2 8 11 8 4 4 3 6 2 4 5 8 13 18 18 19 16 15 19 16 19 9 17 18 11 15 2 20 15 16 19 12 18 17 14 11
11 10 4 3 8 5 7 6 3 4 14 5 5 3 3 7 4 3 1 3 15 9 6 12 6 9 15 14 10 5 2 4 8 13 18 17 18 14 7 11 13 18 18 11 10
12 10 5 4 4 1 3 4 6 7 15 5 6 7 5 6 1 2 3 3 4 8 12 18 2 5 5 3 3 7 3 3 4 6 15 21 20 7 8 7 9 13 13 8 9
15 12 10 3 3 4 4 3 8 14 4 9 9 8 9 9 8 9 7 9 9 7 11 12 22 5 4 5 4 9 6 7 9 7 17 12 14 17 12 14 16 21 18 7 10
18 15 10 9 6 6 3 5 18 9 22 4 3 7 10 11 9 11 8 10 16 15 6 9 12 16 16 16 9 13 10 6 11 14 22 7 16 12 11 13 11 12 6 5 11
17 6 5 9 9 6 5 11 28 20 15 12 2 11 14 10 7 10 13 17 11 22 15 11 16 4 11 4 10 10 9 6 10 4 9 15 28 26 10 11 11 7 5 11 11
3 4 8 13 13 4 5 25 25 13 9 6 26 16 22 22 11 11 14 10 12 16 18 11 17 6 7 3 6 6 3 6 6 7 16 27 25 20 12 14 8 7 10 12 10
4 3 5 17 6 3 6 17 17 19 17 9 20 26 25 22 22 23 16 14 11 10 14 8 7 6 5 12 15 8 8 7 5 11 13 17 19 6 2 7 3 7 9 8 8
3 5 9 13 8 5 10 13 11 23 13 9 10 22 26 24 26 25 27 22 10 8 12 10 3 10 23 11 9 13 18 19 12 18 10 16 29 9 8 7 5 6 6 8 6
4 1 6 7 10 11 11 22 14 19 20 7 12 10 9 17 21 23 23 18 17 12 9 9 6 7 13 8 6 9 15 17 19 14 25 18 28 14 27 18 18 9 10 9 10
3 5 3 4 6 13 20 19 22 17 21 17 8 11 14 18 19 13 20 12 10 6 14 4 6 13 20 25 8 14 20 19 21 19 22 27 27 30 32 22 28 24 16 14 14
4 7 9 7 12 16 10 8 24 18 19 9 7 22 21 14 18 19 23 27 19 3 9 5 16 21 23 28 31 26 22 15 26 26 24 26 24 24 28 33 27 23 17 18 21
5 3 3 9 18 26 27 24 29 26 24 20 23 24 24 25 24 23 20 18 21 2 10 12 14 19 24 27 30 34 30 28 33 27 29 28 28 32 35 35 34 33 32 23 27
3 2 3 2 4 12 20 28 30 28 30 30 30 25 25 27 32 34 25 20 10 10 10 9 7 9 21 25 28 24 37 37 35 38 34 31 39 35 37 35 34 26 27 23 24
Wind_Direction
19 14 11 9 6 3 360 358 355 354 351 345 345 335 325 317 305 205 241 132 135 134 199 175 218 208 211 204 233 256 255 266 282 266 4 135 216 165 4 251 206 196 265 67 140
15 11 6 3 1 358 355 350 346 342 342 342 340 332 323 318 266 255 136 144 147 166 202 204 205 189 216 219 212 246 262 295 346 286 272 205 236 234 221 216 230 235 221 161 160
6 4 2 358 354 350 348 345 338 335 333 335 336 330 318 295 271 238 134 152 163 187 239 238 249 205 237 233 191 187 252 355 269 259 270 262 243 219 231 250 237 239 223 185 190
0 357 353 350 347 345 342 339 334 328 325 327 332 324 318 235 267 85 108 110 161 197 194 195 204 217 248 225 191 258 244 254 294 226 245 245 273 239 230 241 104 317 282 172 199
353 351 347 344 340 337 336 334 330 325 320 320 324 315 266 235 256 120 116 123 154 179 237 233 240 264 257 249 226 245 277 250 247 224 238 257 248 255 261 252 257 221 225 202 208
334 340 341 340 335 333 329 328 324 320 312 312 306 295 246 254 93 128 121 144 209 219 217 235 297 295 293 262 235 360 278 266 257 248 242 233 256 254 254 250 244 240 225 226 217
319 326 331 332 332 329 325 321 318 315 307 302 278 239 244 258 60 128 146 123 133 261 233 215 260 239 20 255 277 283 280 272 246 240 243 205 248 232 251 231 231 233 236 230 225
317 324 323 322 324 323 320 315 311 308 303 287 214 229 265 89 123 150 156 114 106 82 63 121 231 237 242 35 234 257 254 270 204 179 186 200 265 250 251 204 235 246 242 233 229
314 319 316 319 319 316 315 308 304 297 249 211 220 242 261 137 188 154 210 189 124 99 78 121 237 265 192 239 265 204 267 267 261 191 164 211 266 278 231 243 266 263 258 246 233
311 312 313 316 316 317 317 296 283 269 206 218 255 234 178 190 136 150 120 166 159 143 158 203 225 241 220 231 259 292 284 268 261 194 219 235 249 272 279 273 271 268 263 257 251
302 309 313 312 315 320 331 327 239 209 204 246 322 286 167 95 164 183 161 163 173 220 224 189 230 239 254 242 249 276 284 276 273 273 224 247 262 270 275 278 274 275 272 264 253
263 301 300 298 305 312 282 267 69 13 293 239 253 262 233 191 235 193 176 188 189 223 216 215 239 255 280 290 269 259 265 267 273 297 211 272 270 270 267 266 272 273 271 274 267
267 267 286 310 316 291 311 56 32 270 249 230 223 241 231 183 233 213 184 208 218 231 222 240 257 85 259 254 249 243 250 260 274 305 237 267 274 259 244 254 259 267 263 266 253
250 267 297 317 285 349 272 14 299 294 262 222 201 177 161 190 251 102 218 224 209 244 239 251 260 257 246 253 246 259 265 254 270 282 276 81 287 283 284 263 239 267 270 259 215
245 258 250 57 312 300 359 317 263 239 275 111 159 80 129 227 49 150 117 184 239 208 190 231 219 220 232 245 225 240 2 250 259 259 282 262 268 278 193 263 230 247 262 270 188
231 234 174 216 233 32 338 298 267 225 248 186 161 182 173 194 190 93 188 236 336 244 236 260 74 246 236 102 249 120 227 222 229 267 257 260 246 273 229 224 231 249 243 251 187
219 208 188 193 322 119 124 213 243 235 117 191 214 190 209 193 199 192 179 187 193 190 216 220 224 174 199 207 163 206 214 272 251 218 263 280 262 257 277 251 256 263 267 197 174
219 196 204 223 153 145 175 209 246 249 227 75 164 195 215 187 225 197 193 233 225 242 285 251 238 191 194 222 263 198 217 218 264 263 284 101 263 263 237 231 234 249 245 185 186
222 216 189 194 170 168 232 217 240 236 258 249 193 242 219 222 243 198 221 236 229 194 215 223 250 120 181 182 186 162 204 256 275 264 280 266 270 268 231 197 223 217 213 224 208
224 209 211 167 150 180 189 245 246 225 273 256 235 217 247 232 199 204 227 225 231 195 226 258 263 167 123 202 225 241 39 187 204 259 254 278 278 280 270 227 213 232 236 248 210
241 228 175 139 112 158 208 234 272 260 255 232 255 256 257 251 245 228 239 257 207 198 208 235 227 230 144 201 215 187 223 220 300 240 253 269 270 49 42 136 301 224 246 240 211
221 234 153 147 171 184 215 215 234 265 267 263 261 266 265 262 253 249 247 244 185 162 186 213 236 233 237 246 249 248 228 220 219 231 232 250 269 129 111 107 141 213 204 249 224
253 172 183 190 203 216 237 239 248 261 244 220 249 242 289 290 290 273 262 269 264 189 208 174 210 235 259 225 166 211 223 241 241 251 246 246 249 267 273 278 277 239 227 209 219
264 250 164 237 258 227 222 228 235 246 253 250 183 283 270 263 269 281 293 311 345 307 6 14 237 227 240 252 260 216 229 224 228 233 249 245 263 274 282 281 274 274 264 250 235
235 244 184 196 235 244 249 219 239 239 223 223 238 211 219 240 243 247 249 258 257 177 293 296 273 269 256 265 276 274 262 227 224 235 243 261 261 266 277 274 275 277 280 283 273
293 282 249 278 222 213 221 226 238 238 235 230 226 229 223 227 226 244 227 228 238 167 239 236 248 255 261 266 269 274 272 268 263 263 259 255 257 258 261 269 273 271 276 276 276
333 349 353 247 279 258 234 231 233 238 247 241 249 249 239 228 227 234 245 255 221 206 199 194 208 219 243 243 247 251 242 247 251 254 252 252 250 260 264 261 261 276 275 273 275